Weather in Divinopolis

Brazil     20°08′20″S   44°53′13″W
temp.,
°C
wind,
m/s
gust,
m/s
humid.,
%
clouds,
%
prec.,
mm/h
press.,
hPa
HPBL,
m
17 september, fri
fri1700:00+21ese512755 0.0 1020533
03:00+20ese510835 0.0 1020516
06:00+19ese488372 0.0 1022483
09:00+24e465654 0.0 10221285
12:00+30ne233648 0.0 10192263
15:00+30nne543217 0.0 10151950
18:00+26ene35407 0.0 101583
21:00+24ene49512 0.0 1018396
18 september, sat
sat1800:00+20ene256415 0.0 1018113
03:00+18ene226822 0.0 101717
06:00+17ne117732 0.0 101811
09:00+25ne45404 0.0 1018877
12:00+31nne33255 0.0 10151785
15:00+33nne22205 0.0 10112777
18:00+28nne11285 0.0 101111
21:00+24e223248 0.0 101423
19 september, sun
sun1900:00+21ne00313 0.0 101511
03:00+19nne11345 0.0 101311
06:00+18n113599 0.0 101511
09:00+28nne232035 0.0 1016622
12:00+35nne211460 0.0 10132011
15:00+36ese231437 0.0 10103360
18:00+29ese222120 0.0 101014
21:00+26ese222783 0.0 101330
20 september, mon
mon2000:00+24e22386 0.0 101422
03:00+21sse334925 0.0 101459
06:00+21nne115016 0.0 101511
09:00+29ne34295 0.0 1015841
12:00+35n33201 0.0 10122742
15:00+37ne11165 0.0 10093660
18:00+31nne2222100 0.0 100911
21:00+29n11244 0.0 101111
21 september, tue
tue2100:00+24nne22475 0.0 101321
03:00+22ene11527 0.0 101211
06:00+21ne11571 0.0 101311
09:00+30n45303 0.0 1014877
12:00+36nw44180 0.0 10102572
15:00+38wnw34145 0.0 10064095
18:00+31wsw11195 0.0 100711
21:00+28nnw222492 0.0 100814